| time (UTC) | temp C | wind direction | speed KPH | gust KPH | rain 1hr cm | rain 24hr cm | rain mn cm | humidity % | barometer mb |
| 20260505041553 | 5 | 266 | 9.7 | 12.9 | 0.00 | 0.00 | 0.00 | 60 | 1006.2 |
| 20260505040050 | 5 | 285 | 8.0 | 16.1 | 0.00 | 0.00 | 0.00 | 58 | 1006.3 |
| 20260505034548 | 5 | 274 | 9.7 | 19.3 | 0.00 | 0.00 | 0.00 | 57 | 1006.3 |
| 20260505033105 | 6 | 281 | 11.3 | 19.3 | 0.00 | 0.00 | 0.00 | 56 | 1006.0 |
| 20260505031542 | 6 | 295 | 9.7 | 16.1 | 0.00 | 0.00 | 0.00 | 54 | 1006.1 |
| 20260505030042 | 6 | 280 | 11.3 | 17.7 | 0.00 | 0.00 | 0.00 | 53 | 1005.8 |
| 20260505024541 | 6 | 287 | 9.7 | 14.5 | 0.00 | 0.00 | 0.00 | 53 | 1005.8 |
| 20260505023046 | 6 | 276 | 8.0 | 14.5 | 0.00 | 0.00 | 0.00 | 51 | 1005.5 |
| 20260505021534 | 6 | 295 | 9.7 | 16.1 | 0.00 | 0.00 | 0.00 | 50 | 1005.2 |
| 20260505020031 | 7 | 278 | 11.3 | 17.7 | 0.00 | 0.00 | 0.00 | 49 | 1004.9 |
| 20260505014531 | 7 | 289 | 11.3 | 20.9 | 0.00 | 0.00 | 0.00 | 47 | 1004.8 |
| 20260505013024 | 8 | 302 | 14.5 | 24.1 | 0.00 | 0.00 | 0.00 | 45 | 1004.6 |
| 20260505011522 | 8 | 319 | 20.9 | 30.6 | 0.00 | 0.00 | 0.00 | 44 | 1004.5 |
| 20260505010019 | 9 | 290 | 19.3 | 30.6 | 0.00 | 0.00 | 0.00 | 43 | 1004.4 |
| 20260505004535 | 10 | 329 | 22.5 | 37.0 | 0.00 | 0.00 | 0.00 | 42 | 1004.3 |
| 20260505003016 | 10 | 338 | 25.7 | 33.8 | 0.00 | 0.00 | 0.00 | 42 | 1004.1 |
| 20260505001515 | 10 | 337 | 29.0 | 38.6 | 0.00 | 0.00 | 0.00 | 41 | 1003.8 |
| 20260505000020 | 10 | 320 | 25.7 | 37.0 | 0.00 | 0.00 | 0.00 | 40 | 1003.9 |
| 20260504234525 | 11 | 297 | 24.1 | 41.8 | 0.00 | 0.00 | 0.00 | 38 | 1004.0 |
| 20260504233011 | 11 | 290 | 24.1 | 41.8 | 0.00 | 0.00 | 0.00 | 37 | 1003.8 |
| 20260504231530 | 11 | 330 | 32.2 | 41.8 | 0.00 | 0.00 | 0.00 | 38 | 1003.6 |
| 20260504230011 | 11 | 317 | 33.8 | 45.1 | 0.00 | 0.00 | 0.00 | 38 | 1003.6 |
| 20260504224508 | 11 | 325 | 29.0 | 45.1 | 0.00 | 0.00 | 0.00 | 37 | 1003.5 |
| 20260504223008 | 11 | 301 | 32.2 | 43.5 | 0.00 | 0.00 | 0.00 | 38 | 1003.4 |
| 20260504221506 | 11 | 315 | 30.6 | 48.3 | 0.00 | 0.00 | 0.00 | 38 | 1003.3 |
| 20260504220006 | 11 | 304 | 32.2 | 53.1 | 0.00 | 0.00 | 0.00 | 39 | 1003.3 |
| 20260504214509 | 11 | 304 | 33.8 | 41.8 | 0.00 | 0.00 | 0.00 | 38 | 1003.3 |
| 20260504213006 | 11 | 304 | 37.0 | 54.7 | 0.00 | 0.00 | 0.00 | 37 | 1003.0 |
| 20260504211503 | 11 | 307 | 38.6 | 53.1 | 0.00 | 0.00 | 0.00 | 37 | 1002.9 |
| 20260504210001 | 11 | 307 | 37.0 | 46.7 | 0.00 | 0.00 | 0.00 | 40 | 1002.9 |
| 20260504204500 | 10 | 309 | 25.7 | 51.5 | 0.00 | 0.00 | 0.00 | 42 | 1003.0 |
| 20260504203100 | 11 | 307 | 29.0 | 61.2 | 0.00 | 0.00 | 0.00 | 43 | 1003.0 |
| 20260504201559 | 11 | 303 | 35.4 | 57.9 | 0.00 | 0.00 | 0.00 | 45 | 1002.8 |
| 20260504200058 | 11 | 308 | 37.0 | 53.1 | 0.00 | 0.00 | 0.00 | 44 | 1002.5 |
| 20260504194558 | 11 | 334 | 37.0 | 56.3 | 0.00 | 0.00 | 0.00 | 45 | 1002.4 |
| 20260504193054 | 11 | 316 | 35.4 | 53.1 | 0.00 | 0.00 | 0.00 | 45 | 1002.3 |
| 20260504191553 | 12 | 322 | 40.2 | 57.9 | 0.00 | 0.00 | 0.00 | 43 | 1002.0 |
| 20260504190059 | 12 | 300 | 33.8 | 54.7 | 0.00 | 0.00 | 0.00 | 43 | 1002.0 |
| 20260504184602 | 12 | 297 | 38.6 | 54.7 | 0.00 | 0.00 | 0.00 | 45 | 1001.9 |
| 20260504183057 | 12 | 319 | 37.0 | 53.1 | 0.00 | 0.00 | 0.00 | 44 | 1001.5 |
| 20260504181549 | 12 | 291 | 30.6 | 49.9 | 0.00 | 0.00 | 0.00 | 45 | 1001.4 |
| 20260504180045 | 12 | 297 | 32.2 | 46.7 | 0.00 | 0.00 | 0.00 | 45 | 1001.2 |
| 20260504174548 | 12 | 290 | 35.4 | 54.7 | 0.00 | 0.00 | 0.00 | 43 | 1000.8 |
| 20260504173042 | 12 | 321 | 33.8 | 49.9 | 0.00 | 0.00 | 0.00 | 43 | 1000.4 |
| 20260504171545 | 12 | 283 | 29.0 | 45.1 | 0.00 | 0.00 | 0.00 | 42 | 1000.4 |
| 20260504081511 | 13 | 198 | 37.0 | 48.3 | 0.00 | 0.00 | 0.00 | 47 | 994.7 |
| 20260504070104 | 14 | 224 | 30.6 | 40.2 | 0.00 | 0.00 | 0.00 | 46 | 996.0 |